Flag for Germany Weather past 2 weeks in Riesa, Saxony, Germany

49 °F

Light rain. Overcast.

Feels Like: 44 °F
Forecast: 42 / 49 °F
Wind: 13 mph from Southwest

Location: Dresden-Klotzsche

Current Time: Nov 29, 2015 at 10:26:11 PM

Latest Report: Nov 29, 2015 at 10:00 PM

Visibility: 28 mi

Pressure: 29.74 "Hg

Humidity: 75%

Dew point: 41 °F

Location of RiesaLocation

Historic Weather in Riesa — Graph


Riesa temperature yesterday

Maximum temperature yesterday: 38 °F (at 6:00 PM)
Minimum temperature yesterday: 26 °F (at 4:00 AM)
Average temperature yesterday: 33 °F

Past Weeks' High & Low Weather Summary

High60 °F (Nov 18, 3:00 AM)97% (Nov 22, 7:00 PM)30.29 "Hg (Nov 22, 7:00 PM)
Low26 °F (Nov 28, 4:00 AM)58% (Nov 18, 12:00 PM)29.38 "Hg (Nov 21, 12:00 PM)
Average42 °F83%29.85 "Hg
* Reported Nov 14 9:00 PM — Nov 29 9:00 PM, Riesa, Weather by CustomWeather, © 2015

Note: Actual official high and low records may vary slightly from our data, if they occured in-between our weather recording intervals... More about our weather records


Riesa weather history for previous 24 hours

Time TempWeatherWind HumidityBarometerVisibility
9:00 PM
Sun, Nov 29
49 °FOvercast.13 mph75%29.76 "Hg28 mi
8:00 PM47 °FOvercast.12 mph79%29.78 "Hg28 mi
7:00 PM45 °FLight rain. Overcast.9 mph86%29.80 "Hg16 mi
6:00 PM46 °FOvercast.10 mph77%29.83 "Hg31 mi
5:00 PM44 °FPassing clouds.10 mph77%29.84 "Hg31 mi
4:00 PM44 °FLight rain. Overcast.12 mph81%29.84 "Hg28 mi
3:00 PM42 °FLight rain. Partly sunny.9 mph84%29.85 "Hg14 mi
2:00 PM42 °FLight rain. Overcast.10 mph82%29.86 "Hg19 mi
1:00 PM41 °FOvercast.10 mph84%29.87 "Hg14 mi
12:00 PM41 °FLight rain. Overcast.9 mph83%29.88 "Hg14 mi
11:00 AM41 °FLight rain. Overcast.12 mph82%29.89 "Hg16 mi
10:00 AM40 °FLight rain. Overcast.12 mph83%29.88 "Hg16 mi
9:00 AM39 °FLight rain. Overcast.10 mph84%29.88 "Hg16 mi
7:00 AM40 °FLight rain. Overcast.12 mph81%29.88 "Hg22 mi
5:00 AM39 °FOvercast.8 mph75%29.90 "Hg28 mi
4:00 AM37 °FPassing clouds.9 mph77%29.91 "Hg28 mi
3:00 AM37 °FPassing clouds.9 mph78%29.95 "Hg28 mi
2:00 AM37 °FOvercast.9 mph78%29.98 "Hg25 mi
Weather by CustomWeather, © 2015

See weather overviewHow to use our weather pages